Location: *
(10.5081°N, 66.9194°W)
Time: 03:49:18
(UTC+00:00)

Cosmos 2315 Rocket - Pass Details

Date: 30 March 2020
Orbit: 965 x 1003 km, 82.9° (Epoch: 25 May)

Event Time Altitude Azimuth Distance (km) Brightness Sun altitude
Rises 23:23:30 0° 172° (S) 3,661 6.9 -11.9°
Reaches altitude 10° 23:26:03 10° 167° (SSE) 2,719 6.1 -12.5°
Maximum altitude 23:32:05 53° 92° (E) 1,196 4.1 -14.0°
Drops below altitude 10° 23:38:10 10° 17° (NNE) 2,743 6.3 -15.4°
Sets 23:40:45 0° 13° (NNE) 3,697 7.0 -16.1°
